Location: McFarlands Corners
(41.4117°N, 81.3382°W)
Time: 05:51:54
(UTC+00:00)

Transit 2A Rocket - All Passes

Search period start: 18 February 2026 00:00
Search period end: 28 February 2026 00:00
Orbit: 582 x 901 km, 66.7° (Epoch: 17 February)

Date Brightness Start Highest point End Pass type
(mag) Time Alt. Az. Time Alt. Az. Time Alt. Az.
18 Feb - 04:07:58 10° NNE 04:09:08 11° NNE 04:10:17 10° NE visible
18 Feb - 05:47:46 10° NNW 05:53:03 47° NE 05:57:52 10° SE night (unlit)
18 Feb - 07:30:56 10° NW 07:35:02 23° WSW 07:38:50 10° SSW night (unlit)
18 Feb - 20:19:18 10° S 20:24:42 36° ESE 20:30:09 10° NE daylight
18 Feb - 22:01:25 10° WSW 22:07:05 41° NW 22:12:43 10° NNE daylight
18 Feb - 23:50:09 10° NW 23:51:08 10° NNW 23:52:08 10° NNW visible
19 Feb - 05:02:26 10° NNW 05:07:09 28° NE 05:11:30 10° ESE night (unlit)
19 Feb - 06:44:40 10° NW 06:49:43 43° WSW 06:54:19 10° S night (unlit)
19 Feb - 19:35:05 10° SSE 19:39:23 21° ESE 19:43:43 10° ENE daylight
19 Feb - 21:15:18 10° SW 21:21:17 67° WNW 21:27:16 10° NNE daylight
19 Feb - 23:01:19 10° WNW 23:04:49 16° NW 23:08:15 10° N daylight
20 Feb - 04:17:20 10° N 04:21:04 18° NE 04:24:34 10° E visible
20 Feb - 05:58:49 10° NNW 06:04:14 82° WSW 06:09:08 10° SSE night (unlit)
20 Feb - 18:52:47 10° ESE 18:54:12 11° E 18:55:37 10° E daylight
20 Feb - 20:29:39 10° SSW 20:35:37 74° ESE 20:41:38 10° NNE daylight
20 Feb - 22:13:55 10° W 22:18:38 23° NW 22:23:19 10° N daylight
21 Feb - 03:32:48 10° NNE 03:34:48 12° NNE 03:36:45 10° NE visible
21 Feb - 05:13:13 10° NNW 05:18:34 55° NE 05:23:24 10° SE night (unlit)
21 Feb - 06:56:46 10° WNW 07:00:22 19° WSW 07:03:44 10° SSW night (unlit)
21 Feb - 19:44:31 10° S 19:50:07 43° ESE 19:55:45 10° NE daylight
21 Feb - 21:27:09 10° WSW 21:32:38 36° NW 21:38:06 10° NNE daylight
22 Feb - 04:27:48 10° NNW 04:32:42 32° NE 04:37:11 10° ESE visible
22 Feb - 06:10:17 10° NW 06:15:05 36° WSW 06:19:30 10° S night (unlit)
22 Feb - 19:00:03 10° SSE 19:04:45 25° ESE 19:09:29 10° NE daylight
22 Feb - 20:40:52 10° SW 20:46:48 58° NW 20:52:42 10° NNE daylight
22 Feb - 22:27:30 10° WNW 22:30:28 14° NW 22:33:24 10° N daylight
23 Feb - 03:42:39 10° N 03:46:39 20° NE 03:50:26 10° E visible
23 Feb - 05:24:20 10° NW 05:29:40 68° WSW 05:34:28 10° SSE night (unlit)
23 Feb - 18:16:47 10° SE 18:19:32 13° ESE 18:22:16 10° ENE daylight
23 Feb - 19:55:04 10° SSW 20:01:05 86° ESE 20:07:07 10° NNE daylight
23 Feb - 21:39:50 10° W 21:44:15 21° NW 21:48:37 10° N daylight
24 Feb - 02:57:53 10° N 03:00:27 13° NE 03:02:55 10° ENE visible
24 Feb - 04:38:40 10° NNW 04:44:03 66° ENE 04:48:53 10° SE night (unlit)
24 Feb - 06:22:43 10° WNW 06:25:39 15° WSW 06:28:28 10° SW night (unlit)
24 Feb - 19:09:47 10° S 19:15:32 50° ESE 19:21:19 10° NE daylight
24 Feb - 20:52:53 10° WSW 20:58:12 31° NW 21:03:27 10° NNE daylight
25 Feb - 03:53:12 10° NNW 03:58:14 37° NE 04:02:49 10° ESE visible
25 Feb - 05:35:57 10° NW 05:40:26 29° WSW 05:44:35 10° SSW night (unlit)
25 Feb - 18:25:04 10° SSE 18:30:08 29° ESE 18:35:12 10° NE daylight
25 Feb - 20:06:28 10° SW 20:12:18 50° NW 20:18:06 10° NNE daylight
25 Feb - 21:53:49 10° WNW 21:56:08 12° NNW 21:58:26 10° N daylight
26 Feb - 03:07:58 10° N 03:12:14 23° NE 03:16:13 10° E visible
26 Feb - 04:49:52 10° NW 04:55:03 56° WSW 04:59:45 10° SSE night (unlit)
26 Feb - 17:41:20 10° SE 17:44:51 16° ESE 17:48:23 10° ENE daylight
26 Feb - 19:20:32 10° SSW 19:26:34 82° WNW 19:32:35 10° NNE daylight
26 Feb - 21:05:49 10° W 21:09:52 18° NW 21:13:52 10° N daylight
27 Feb - 02:23:03 10° N 02:26:04 15° NE 02:28:58 10° ENE visible
27 Feb - 04:04:07 10° NNW 04:09:30 78° ENE 04:14:19 10° SE visible
27 Feb - 05:48:56 10° WNW 05:50:57 12° WSW 05:52:55 10° SW night (unlit)
27 Feb - 18:35:05 10° SSW 18:40:58 59° ESE 18:46:51 10° NE daylight
27 Feb - 20:18:40 10° WSW 20:23:46 28° NW 20:28:47 10° N daylight
